Time,TemperatureF,DewpointF,PressureIn,WindDirection,WindDirectionDegrees,WindSpeedMPH,WindSpeedGustMPH,Humidity,HourlyPrecipIn,Conditions,Clouds,dailyrainin,SoftwareType,DateUTC
2013-01-25 00:06:00,9.9,-11.0,30.23,WSW,252,0.0,-999.0,39,-99.99,,,0.00,weatherlink.com 1.10,2013-01-25 05:06:00,
2013-01-25 00:21:00,9.8,-10.0,30.21,NE,36,0.0,-999.0,40,-99.99,,,0.00,weatherlink.com 1.10,2013-01-25 05:21:00,
2013-01-25 00:36:00,9.8,-10.0,30.22,West,279,2.0,-999.0,40,-99.99,,,0.00,weatherlink.com 1.10,2013-01-25 05:36:00,
2013-01-25 00:51:00,9.4,-10.0,30.23,West,273,0.0,-999.0,41,-99.99,,,0.00,weatherlink.com 1.10,2013-01-25 05:51:00,
2013-01-25 01:06:00,9.2,-10.0,30.23,WSW,254,1.0,-999.0,42,-99.99,,,0.00,weatherlink.com 1.10,2013-01-25 06:06:00,
2013-01-25 01:21:00,9.1,-9.0,30.23,NNE,31,0.0,-999.0,43,-99.99,,,0.00,weatherlink.com 1.10,2013-01-25 06:21:00,
2013-01-25 01:36:00,9.0,-9.0,30.24,West,277,0.0,-999.0,44,-99.99,,,0.00,weatherlink.com 1.10,2013-01-25 06:36:00,
2013-01-25 01:51:00,8.9,-9.0,30.24,South,174,1.0,-999.0,44,-99.99,,,0.00,weatherlink.com 1.10,2013-01-25 06:51:00,
2013-01-25 02:06:00,8.9,-9.0,30.24,NW,311,1.0,-999.0,45,-99.99,,,0.00,weatherlink.com 1.10,2013-01-25 07:06:00,
2013-01-25 02:21:00,9.1,-8.0,30.24,South,182,0.0,-999.0,45,-99.99,,,0.00,weatherlink.com 1.10,2013-01-25 07:21:00,
2013-01-25 02:36:00,9.0,-8.0,30.25,West,270,0.0,-999.0,45,-99.99,,,0.00,weatherlink.com 1.10,2013-01-25 07:36:00,
2013-01-25 02:51:00,9.1,-8.0,30.25,SW,229,1.0,-999.0,45,-99.99,,,0.00,weatherlink.com 1.10,2013-01-25 07:51:00,
2013-01-25 03:06:00,8.9,-9.0,30.25,WSW,242,0.0,-999.0,44,-99.99,,,0.00,weatherlink.com 1.10,2013-01-25 08:06:00,
2013-01-25 03:22:00,8.7,-9.0,30.25,WSW,245,0.0,-999.0,44,-99.99,,,0.00,weatherlink.com 1.10,2013-01-25 08:22:00,
2013-01-25 03:37:00,8.7,-9.0,30.25,West,277,0.0,-999.0,44,-99.99,,,0.00,weatherlink.com 1.10,2013-01-25 08:37:00,
2013-01-25 03:52:00,8.4,-9.0,30.25,West,277,0.0,-999.0,45,-99.99,,,0.00,weatherlink.com 1.10,2013-01-25 08:52:00,
2013-01-25 04:07:00,8.0,-9.0,30.25,WSW,257,1.0,-999.0,46,-99.99,,,0.00,weatherlink.com 1.10,2013-01-25 09:07:00,
2013-01-25 04:22:00,7.8,-9.0,30.26,WSW,257,0.0,-999.0,47,-99.99,,,0.00,weatherlink.com 1.10,2013-01-25 09:22:00,
2013-01-25 04:37:00,7.5,-8.0,30.26,WSW,257,0.0,-999.0,49,-99.99,,,0.00,weatherlink.com 1.10,2013-01-25 09:37:00,
2013-01-25 04:52:00,7.2,-9.0,30.26,WSW,245,0.0,-999.0,48,-99.99,,,0.00,weatherlink.com 1.10,2013-01-25 09:52:00,
2013-01-25 05:07:00,6.9,-8.0,30.27,WSW,245,1.0,-999.0,50,-99.99,,,0.00,weatherlink.com 1.10,2013-01-25 10:07:00,
2013-01-25 05:22:00,7.2,-9.0,30.27,WSW,238,0.0,-999.0,48,-99.99,,,0.00,weatherlink.com 1.10,2013-01-25 10:22:00,
2013-01-25 05:37:00,7.4,-9.0,30.27,WSW,238,0.0,-999.0,47,-99.99,,,0.00,weatherlink.com 1.10,2013-01-25 10:37:00,
2013-01-25 05:52:00,7.4,-8.0,30.28,WSW,238,0.0,-999.0,49,-99.99,,,0.00,weatherlink.com 1.10,2013-01-25 10:52:00,
2013-01-25 06:07:00,7.1,-8.0,30.28,WSW,238,0.0,-999.0,50,-99.99,,,0.00,weatherlink.com 1.10,2013-01-25 11:07:00,
2013-01-25 06:22:00,7.0,-8.0,30.27,South,190,0.0,-999.0,51,-99.99,,,0.00,weatherlink.com 1.10,2013-01-25 11:22:00,
2013-01-25 06:38:00,6.8,-8.0,30.27,WSW,238,0.0,-999.0,51,-99.99,,,0.00,weatherlink.com 1.10,2013-01-25 11:38:00,
2013-01-25 06:53:00,6.7,-8.0,30.27,WSW,238,0.0,-999.0,52,-99.99,,,0.00,weatherlink.com 1.10,2013-01-25 11:53:00,
2013-01-25 07:08:00,6.7,-8.0,30.28,WSW,242,0.0,-999.0,52,-99.99,,,0.00,weatherlink.com 1.10,2013-01-25 12:08:00,
2013-01-25 07:23:00,6.8,-8.0,30.28,WSW,242,0.0,-999.0,52,-99.99,,,0.00,weatherlink.com 1.10,2013-01-25 12:23:00,
2013-01-25 07:38:00,7.3,-7.0,30.28,WSW,257,0.0,-999.0,52,-99.99,,,0.00,weatherlink.com 1.10,2013-01-25 12:38:00,
2013-01-25 07:53:00,8.1,-8.0,30.29,NNW,334,1.0,-999.0,49,-99.99,,,0.00,weatherlink.com 1.10,2013-01-25 12:53:00,
2013-01-25 08:08:00,8.9,-7.0,30.29,West,275,2.0,-999.0,48,-99.99,,,0.00,weatherlink.com 1.10,2013-01-25 13:08:00,
2013-01-25 08:23:00,9.6,-8.0,30.29,WNW,287,0.0,-999.0,45,-99.99,,,0.00,weatherlink.com 1.10,2013-01-25 13:23:00,
2013-01-25 08:38:00,10.3,-8.0,30.29,SW,232,2.0,-999.0,44,-99.99,,,0.00,weatherlink.com 1.10,2013-01-25 13:38:00,
2013-01-25 08:53:00,11.4,-8.0,30.29,WSW,257,0.0,-999.0,41,-99.99,,,0.00,weatherlink.com 1.10,2013-01-25 13:53:00,
2013-01-25 09:08:00,12.3,-8.0,30.29,ESE,121,0.0,-999.0,39,-99.99,,,0.00,weatherlink.com 1.10,2013-01-25 14:08:00,
2013-01-25 09:23:00,13.0,-8.0,30.30,WSW,241,4.0,-999.0,38,-99.99,,,0.00,weatherlink.com 1.10,2013-01-25 14:23:00,
2013-01-25 09:38:00,13.5,-10.0,30.30,WNW,293,6.0,-999.0,35,-99.99,,,0.00,weatherlink.com 1.10,2013-01-25 14:38:00,
2013-01-25 09:53:00,14.0,-9.0,30.30,NW,315,1.0,-999.0,35,-99.99,,,0.00,weatherlink.com 1.10,2013-01-25 14:53:00,
2013-01-25 10:09:00,14.7,-7.0,30.30,SW,231,2.0,-999.0,37,-99.99,,,0.00,weatherlink.com 1.10,2013-01-25 15:09:00,
2013-01-25 10:24:00,15.7,-7.0,30.30,WNW,302,0.0,-999.0,36,-99.99,,,0.00,weatherlink.com 1.10,2013-01-25 15:24:00,
2013-01-25 10:39:00,16.7,-8.0,30.30,West,275,1.0,-999.0,33,-99.99,,,0.00,weatherlink.com 1.10,2013-01-25 15:39:00,
2013-01-25 10:54:00,17.0,-8.0,30.29,West,269,1.0,-999.0,32,-99.99,,,0.00,weatherlink.com 1.10,2013-01-25 15:54:00,
2013-01-25 11:09:00,17.9,-8.0,30.28,NNW,334,3.0,-999.0,31,-99.99,,,0.00,weatherlink.com 1.10,2013-01-25 16:09:00,
2013-01-25 11:24:00,19.4,-6.0,30.27,SW,225,1.0,-999.0,32,-99.99,,,0.00,weatherlink.com 1.10,2013-01-25 16:24:00,
2013-01-25 11:39:00,19.7,-9.0,30.26,SSW,202,0.0,-999.0,28,-99.99,,,0.00,weatherlink.com 1.10,2013-01-25 16:39:00,
2013-01-25 11:54:00,19.8,-9.0,30.26,SW,214,1.0,-999.0,28,-99.99,,,0.00,weatherlink.com 1.10,2013-01-25 16:54:00,
2013-01-25 12:09:00,20.4,-8.0,30.25,East,80,2.0,-999.0,28,-99.99,,,0.00,weatherlink.com 1.10,2013-01-25 17:09:00,
2013-01-25 12:24:00,21.5,-6.0,30.25,North,9,1.0,-999.0,29,-99.99,,,0.00,weatherlink.com 1.10,2013-01-25 17:24:00,
2013-01-25 12:39:00,21.8,-8.0,30.24,WSW,254,2.0,-999.0,26,-99.99,,,0.00,weatherlink.com 1.10,2013-01-25 17:39:00,
2013-01-25 12:54:00,22.5,-9.0,30.23,NW,319,1.0,-999.0,25,-99.99,,,0.00,weatherlink.com 1.10,2013-01-25 17:54:00,
2013-01-25 13:09:00,22.5,-9.0,30.21,NW,326,0.0,-999.0,25,-99.99,,,0.00,weatherlink.com 1.10,2013-01-25 18:09:00,
2013-01-25 13:24:00,22.5,-9.0,30.20,North,360,0.0,-999.0,25,-99.99,,,0.00,weatherlink.com 1.10,2013-01-25 18:24:00,
2013-01-25 13:40:00,23.1,-9.0,30.20,North,5,0.0,-999.0,24,-99.99,,,0.00,weatherlink.com 1.10,2013-01-25 18:40:00,
2013-01-25 13:55:00,22.5,-9.0,30.18,SW,219,2.0,-999.0,24,-99.99,,,0.00,weatherlink.com 1.10,2013-01-25 18:55:00,
2013-01-25 14:10:00,23.0,-7.0,30.17,NE,37,0.0,-999.0,26,-99.99,,,0.00,weatherlink.com 1.10,2013-01-25 19:10:00,
2013-01-25 14:25:00,22.9,-8.0,30.17,West,260,1.0,-999.0,25,-99.99,,,0.00,weatherlink.com 1.10,2013-01-25 19:25:00,
2013-01-25 14:40:00,23.1,-6.0,30.17,WNW,292,2.0,-999.0,27,-99.99,,,0.00,weatherlink.com 1.10,2013-01-25 19:40:00,
2013-01-25 14:55:00,23.5,-6.0,30.16,West,269,0.0,-999.0,27,-99.99,,,0.00,weatherlink.com 1.10,2013-01-25 19:55:00,
2013-01-25 15:10:00,23.3,-7.0,30.16,WNW,298,0.0,-999.0,26,-99.99,,,0.00,weatherlink.com 1.10,2013-01-25 20:10:00,
2013-01-25 15:25:00,22.8,-7.0,30.16,WSW,241,0.0,-999.0,27,-99.99,,,0.00,weatherlink.com 1.10,2013-01-25 20:25:00,
2013-01-25 15:40:00,22.9,-5.0,30.16,South,190,2.0,-999.0,29,-99.99,,,0.00,weatherlink.com 1.10,2013-01-25 20:40:00,
2013-01-25 15:55:00,22.6,-6.0,30.16,West,263,0.0,-999.0,28,-99.99,,,0.00,weatherlink.com 1.10,2013-01-25 20:55:00,
2013-01-25 16:10:00,22.0,-7.0,30.15,SW,227,4.0,-999.0,27,-99.99,,,0.00,weatherlink.com 1.10,2013-01-25 21:10:00,
2013-01-25 16:25:00,21.6,-7.0,30.15,WSW,247,1.0,-999.0,28,-99.99,,,0.00,weatherlink.com 1.10,2013-01-25 21:25:00,
2013-01-25 16:40:00,21.3,-6.0,30.15,WSW,247,0.0,-999.0,30,-99.99,,,0.00,weatherlink.com 1.10,2013-01-25 21:40:00,
2013-01-25 16:55:00,20.9,-6.0,30.15,WSW,248,0.0,-999.0,30,-99.99,,,0.00,weatherlink.com 1.10,2013-01-25 21:55:00,
2013-01-25 17:11:00,20.7,-6.0,30.15,WSW,248,0.0,-999.0,30,-99.99,,,0.00,weatherlink.com 1.10,2013-01-25 22:11:00,
2013-01-25 17:26:00,20.5,-6.0,30.15,WSW,248,0.0,-999.0,30,-99.99,,,0.00,weatherlink.com 1.10,2013-01-25 22:26:00,
2013-01-25 17:41:00,20.3,-6.0,30.15,WSW,248,0.0,-999.0,31,-99.99,,,0.00,weatherlink.com 1.10,2013-01-25 22:41:00,
2013-01-25 17:56:00,20.1,-5.0,30.14,WSW,248,0.0,-999.0,33,-99.99,,,0.00,weatherlink.com 1.10,2013-01-25 22:56:00,
2013-01-25 18:11:00,20.0,-6.0,30.14,WSW,248,0.0,-999.0,32,-99.99,,,0.00,weatherlink.com 1.10,2013-01-25 23:11:00,
2013-01-25 18:26:00,19.9,-4.0,30.13,WSW,248,0.0,-999.0,35,-99.99,,,0.00,weatherlink.com 1.10,2013-01-25 23:26:00,
2013-01-25 18:41:00,19.8,-5.0,30.13,WSW,248,0.0,-999.0,34,-99.99,,,0.00,weatherlink.com 1.10,2013-01-25 23:41:00,
2013-01-25 18:56:00,19.7,-4.0,30.13,WSW,248,0.0,-999.0,35,-99.99,,,0.00,weatherlink.com 1.10,2013-01-25 23:56:00,
2013-01-25 19:11:00,19.7,-3.0,30.12,WSW,248,0.0,-999.0,36,-99.99,,,0.00,weatherlink.com 1.10,2013-01-26 00:11:00,
2013-01-25 19:26:00,19.7,-2.0,30.12,WSW,248,0.0,-999.0,38,-99.99,,,0.00,weatherlink.com 1.10,2013-01-26 00:26:00,
2013-01-25 19:41:00,19.7,-2.0,30.11,WSW,248,0.0,-999.0,39,-99.99,,,0.00,weatherlink.com 1.10,2013-01-26 00:41:00,
2013-01-25 19:56:00,19.6,-2.0,30.11,WSW,248,0.0,-999.0,38,-99.99,,,0.00,weatherlink.com 1.10,2013-01-26 00:56:00,
2013-01-25 20:11:00,19.6,-2.0,30.11,WSW,248,0.0,-999.0,38,-99.99,,,0.00,weatherlink.com 1.10,2013-01-26 01:11:00,
2013-01-25 20:27:00,19.4,-3.0,30.10,WSW,248,0.0,-999.0,38,-99.99,,,0.00,weatherlink.com 1.10,2013-01-26 01:27:00,
2013-01-25 20:42:00,19.3,-1.0,30.09,WSW,248,0.0,-999.0,41,-99.99,,,0.00,weatherlink.com 1.10,2013-01-26 01:42:00,
2013-01-25 20:57:00,19.3,-3.0,30.09,WSW,248,0.0,-999.0,37,-99.99,,,0.00,weatherlink.com 1.10,2013-01-26 01:57:00,
2013-01-25 21:12:00,19.3,-2.0,30.09,WSW,248,0.0,-999.0,39,-99.99,,,0.00,weatherlink.com 1.10,2013-01-26 02:12:00,
2013-01-25 21:27:00,19.3,-1.0,30.09,WSW,248,0.0,-999.0,41,-99.99,,,0.00,weatherlink.com 1.10,2013-01-26 02:27:00,
2013-01-25 21:42:00,19.3,-2.0,30.08,WSW,248,0.0,-999.0,40,-99.99,,,0.00,weatherlink.com 1.10,2013-01-26 02:42:00,
2013-01-25 21:57:00,19.2,-3.0,30.07,WSW,248,0.0,-999.0,38,-99.99,,,0.00,weatherlink.com 1.10,2013-01-26 02:57:00,
2013-01-25 22:12:00,19.4,-1.0,30.07,West,262,1.0,-999.0,41,-99.99,,,0.00,weatherlink.com 1.10,2013-01-26 03:12:00,
2013-01-25 22:27:00,19.5,1.0,30.07,SW,218,1.0,-999.0,44,-99.99,,,0.00,weatherlink.com 1.10,2013-01-26 03:27:00,
2013-01-25 22:42:00,19.4,0.0,30.07,SW,218,0.0,-999.0,43,-99.99,,,0.00,weatherlink.com 1.10,2013-01-26 03:42:00,
2013-01-25 22:57:00,19.4,1.0,30.06,WNW,282,0.0,-999.0,45,-99.99,,,0.00,weatherlink.com 1.10,2013-01-26 03:57:00,
2013-01-25 23:12:00,19.2,3.0,30.07,WSW,246,0.0,-999.0,49,-99.99,,,0.00,weatherlink.com 1.10,2013-01-26 04:12:00,
2013-01-25 23:27:00,19.0,4.0,30.06,WSW,244,0.0,-999.0,52,-99.99,,,0.00,weatherlink.com 1.10,2013-01-26 04:27:00,
2013-01-25 23:42:00,18.6,6.0,30.06,WSW,258,0.0,-999.0,59,-99.99,,,0.00,weatherlink.com 1.10,2013-01-26 04:42:00,
2013-01-25 23:58:00,18.1,7.0,30.06,West,259,1.0,-999.0,62,-99.99,,,0.00,weatherlink.com 1.10,2013-01-26 04:58:00,